Hourly Data Report for May 26, 2012

All times are specified in Local Standard Time (LST). Add 1 hour to adjust for Daylight Saving Time where and when it is observed.

OTTAWA INTL A
ONTARIO

45°19'00.000" N
75°40'00.000" W
114.90 m
6106001
71628
YOW

Download Data

Hourly Data (May 2012)
Hourly Data Report for May 26, 2012
Temp Definition
°C
Dew Point Temp Definition
°C
Rel Hum Definition
%
Wind Dir Definition
10's deg

Wind Spd Definition
km/h
Visibility Definition
km
Stn Press Definition
kPa
Hmdx Definition


Wind Chill Definition


Weather Definition


TIME
00:00 Legend Double Dagger 18.4 7.3 48 27 18 10.0 100.22     LegendNANA
01:00 Legend Double Dagger 14.6 7.7 63 27 10 10.0 100.28     Clear
02:00 Legend Double Dagger 14.6 7.7 63 28 13 10.0 100.34     LegendNANA
03:00 Legend Double Dagger 13.6 8.7 72 29 7 10.0 100.41     LegendNANA
04:00 Legend Double Dagger 11.9 7.8 76 27 9 10.0 100.46     Mainly Clear
05:00 Legend Double Dagger 12.7 9.4 80 29 11 10.0 100.53     LegendNANA
06:00 Legend Double Dagger 14.8 10.7 76 28 9 10.0 100.63     LegendNANA
07:00 Legend Double Dagger 16.9 10.4 65 29 11 10.0 100.67     Mainly Clear
08:00 Legend Double Dagger 18.5 11.2 62 31 8 10.0 100.70     LegendNANA
09:00 Legend Double Dagger 20.4 12.0 58 36 9 10.0 100.73     LegendNANA
10:00 Legend Double Dagger 21.7 12.1 54 33 7 10.0 100.74     Mainly Clear
11:00 Legend Double Dagger 23.1 12.3 50 29 15 10.0 100.75 26   LegendNANA
12:00 Legend Double Dagger 23.8 11.0 44 27 21 10.0 100.76 26   LegendNANA
13:00 Legend Double Dagger 23.9 11.4 45 29 22 10.0 100.76 26   Mainly Clear
14:00 Legend Double Dagger 23.8 12.0 47 30 15 10.0 100.74 26   LegendNANA
15:00 Legend Double Dagger 24.8 9.3 37 31 27 10.0 100.69 26   LegendNANA
16:00 Legend Double Dagger 24.6 8.8 36 30 23 10.0 100.65 25   Mostly Cloudy
17:00 Legend Double Dagger 24.2 9.2 38 30 19 10.0 100.62 25   LegendNANA
18:00 Legend Double Dagger 22.6 10.6 46 2 18 10.0 100.63     LegendNANA
19:00 Legend Double Dagger 20.6 9.7 49 2 17 10.0 100.68     Mainly Clear
20:00 Legend Double Dagger 18.7 9.6 55 2 7 10.0 100.77     LegendNANA
21:00 Legend Double Dagger 18.0 8.7 54 1 11 10.0 100.84     LegendNANA
22:00 Legend Double Dagger 15.6 8.9 64 2 8 10.0 100.85     Mainly Clear
23:00 Legend Double Dagger 15.1 9.1 67 1 12 10.0 100.90     LegendNANA

Notes on Data Quality.

Legend

  • E = Estimated
  • M = Missing
  • NA = Not Available
  • ‡ = Partner data that is not subject to review by the National Climate Archives
Date modified: